[[{"header":{"parameterUnit":"m.s-1","parameterCategory":1,"la1":30.2991,"la2":30.254,"lo1":-89.0895,"lo2":-89.0444,"dy":0.0017,"dx":0.0017,"nx":28,"ny":28,"refTime":"2023-07-28T03:00:00:Z","depth":0,"parameterNumber":2,"parameterNumberName":"U-component_of_WINDS"},"data":[0,0,0,0,0,0,0,0,0,0,0,0,0,0,0,0,0,0,0,0,0,0,0,0,0,0,0,0,0,0,0,0,0,0,0,0,0,0,0,0,0,0,0,0,0,0,0,0,0,0,0,0,0,0,0,0,0,0,0.1959,0.196,0,0.205,0.2051,0.2052,0.2112,0.2113,0.2113,0.2113,0.2205,0.2207,0.2209,0,0,0,0,0,0,0,0,0,0,0,0,0,0.1837,0.1839,0.1959,0.196,0.1962,0.205,0.2051,0.2052,0.2112,0.2113,0.2113,0.2114,0.2204,0.2207,0.2209,0,0,0,0,0,0,0,0,0,0,0,0,0,0.1905,0.1839,0.1959,0.2002,0.2007,0.2049,0.2051,0.2053,0.2112,0.2113,0.2113,0.2114,0.2203,0.2206,0.2209,0.2216,0,0,0.2219,0.222,0,0,0,0,0,0,0,0,0.1901,0.1909,0.1995,0.1999,0.2005,0.207,0.2041,0.2107,0.2112,0.2072,0.2113,0.2114,0.2159,0.2166,0.2182,0.222,0.2224,0.2219,0.2221,0.2222,0.2223,0,0,0,0,0,0,0,0.1896,0.1906,0.1995,0.1996,0.2002,0.2016,0.2027,0.2054,0.2111,0.2076,0.208,0.209,0.2162,0.2179,0.2184,0.2225,0.2219,0.2222,0.2223,0.2225,0.2273,0.2272,0,0,0,0,0,0,0.1885,0.1901,0.1992,0.1998,0.1953,0.2018,0.203,0.2049,0.2111,0.2121,0.209,0.2093,0.2173,0.2181,0.2188,0.2199,0.2222,0.2225,0.2227,0.2273,0.2272,0.2272,0,0,0,0,0,0,0.1882,0.1892,0.1989,0.1951,0.1964,0.202,0.204,0.205,0.2067,0.2122,0.2132,0.2096,0.2174,0.2183,0.2208,0.2203,0.2226,0.2229,0.2274,0.2273,0.2272,0.2221,0,0,0,0,0,0,0.1878,0.1891,0.1894,0.195,0.1966,0.2008,0.204,0.2051,0.2072,0.2077,0.213,0.214,0.2175,0.2203,0.2211,0.2207,0.2232,0.2274,0.2273,0.2272,0.2223,0.2219,0.2214,0,0,0,0,0,0.1873,0.1876,0.1894,0.1905,0.1972,0.2007,0.2016,0.2057,0.2071,0.2075,0.211,0.2138,0.2202,0.2205,0.2215,0.2212,0.2275,0.2274,0.2272,0.2226,0.222,0.2215,0,0,0,0,0,0,0.1818,0.1884,0.1905,0.1926,0.1961,0.2018,0.2023,0.205,0.2081,0.2084,0.2134,0.2145,0.2165,0.2191,0.2193,0.2221,0.2242,0.2242,0.2203,0.2198,0.2193,0.2186,0.2234,0,0,0,0,0,0.1808,0.1832,0.1889,0.1902,0.1918,0.1967,0.1985,0.2013,0.2051,0.2066,0.2103,0.2138,0.2166,0.2184,0.2213,0.2228,0.224,0.223,0.2226,0.2222,0.2221,0.2231,0.2227,0.2268,0.2268,0.2268,0,0,0.1787,0.1827,0.1839,0.1892,0.1922,0.1945,0.1979,0.2003,0.202,0.2069,0.2095,0.2123,0.2166,0.2185,0.2196,0.2208,0.2213,0.222,0.2217,0.2219,0.2229,0.2225,0.2222,0.2267,0.2267,0.2267,0,0,0.1762,0.1795,0.1809,0.1839,0.1884,0.1917,0.192,0.1973,0.1994,0.202,0.2058,0.2079,0.2126,0.2155,0.2175,0.216,0.2187,0.2169,0.2145,0.2153,0.215,0.2147,0.2141,0.2138,0.2168,0.2168,0.2168,0,0.1731,0.1769,0.1813,0.1834,0.1856,0.1901,0.1916,0.1942,0.1994,0.2008,0.202,0.2081,0.2112,0.2139,0.2135,0.2151,0.2155,0.2162,0.2147,0.2145,0.2143,0.2137,0.2135,0.2165,0.2166,0.2166,0.2166,0,0.1728,0.1753,0.1759,0.1808,0.183,0.1848,0.1894,0.1911,0.1938,0.1969,0.1995,0.2035,0.2072,0.2081,0.2107,0.2111,0.2117,0.2137,0.2159,0.2135,0.2131,0.213,0.2162,0.2163,0.2163,0.2164,0,0,0.167,0.1744,0.1745,0.1767,0.1821,0.1841,0.186,0.1897,0.191,0.1944,0.1961,0.2,0.2019,0.2043,0.2072,0.208,0.2064,0.21,0.2101,0.2091,0.207,0.2054,0.2051,0.2083,0.2082,0.2082,0.2066,0,0.1652,0.1689,0.173,0.1753,0.1776,0.1819,0.1836,0.187,0.1899,0.1923,0.1956,0.1982,0.2006,0.202,0.203,0.2064,0.2061,0.2066,0.2098,0.2098,0.2085,0.2049,0.2032,0.2015,0.2065,0.2065,0.2065,0,0.1637,0.1669,0.1694,0.1744,0.1756,0.177,0.1807,0.1829,0.1868,0.1889,0.1914,0.1946,0.1968,0.1988,0.2018,0.202,0.2036,0.2055,0.2055,0.2059,0.208,0.2051,0.2011,0.2007,0.2063,0.2063,0.2063,0,0.1591,0.164,0.1662,0.168,0.174,0.1748,0.1773,0.1813,0.1833,0.1865,0.1878,0.1912,0.193,0.1955,0.1995,0.2006,0.2021,0.2044,0.2038,0.2037,0.2038,0.2038,0.1999,0.2049,0.2049,0.205,0.205,0,0.1566,0.158,0.1642,0.1655,0.1671,0.1717,0.1731,0.176,0.1795,0.1814,0.1854,0.1871,0.1923,0.1946,0.1977,0.1997,0.2005,0.2022,0.203,0.2018,0.2015,0.2028,0.203,0.2049,0.2049,0.2049,0.2049,0,0.1517,0.156,0.1586,0.164,0.1654,0.1663,0.171,0.1723,0.1755,0.1779,0.1787,0.1836,0.1865,0.1908,0.1949,0.197,0.1985,0.1998,0.1971,0.1976,0.1967,0.1967,0.1935,0.1933,0.1985,0.1984,0.1984,0,0.1499,0.151,0.1566,0.1581,0.1605,0.163,0.165,0.1695,0.1714,0.176,0.1768,0.18,0.1828,0.1871,0.1911,0.1943,0.1957,0.1943,0.1962,0.1949,0.1956,0.1954,0.1955,0.1939,0.1938,0.1937,0.1937,0,0.1461,0.1481,0.1508,0.1543,0.1566,0.1595,0.1626,0.1637,0.1689,0.1708,0.1738,0.176,0.1802,0.1833,0.187,0.1896,0.1924,0.1931,0.1931,0.1918,0.1902,0.191,0.1958,0.1931,0.1932,0.1932,0.1932,0.1933,0.1426,0.1438,0.1478,0.1507,0.1536,0.1564,0.1579,0.1613,0.1639,0.1677,0.1703,0.1731,0.1769,0.1822,0.1846,0.1869,0.1881,0.1881,0.1881,0.1881,0.1876,0.1899,0.1876,0.1876,0.1876,0.1876,0.1877,0,0.1389,0.1417,0.1444,0.1486,0.1509,0.1534,0.157,0.1587,0.1612,0.1645,0.1672,0.1706,0.1736,0.1778,0.1811,0.1821,0.1835,0.1828,0.1827,0.1832,0.1863,0.186,0.1816,0.1816,0.1816,0.1816,0.1816,0.1816,0.1373,0.1394,0.1418,0.1454,0.1482,0.151,0.1528,0.1554,0.1581,0.1617,0.1643,0.167,0.1707,0.1743,0.1771,0.1783,0.1792,0.1781,0.1796,0.1825,0.183,0.1835,0.1832,0.1783,0.1783,0.1764,0.1763,0.1763]},{"header":{"parameterUnit":"m.s-1","parameterCategory":1,"la1":30.2991,"la2":30.254,"lo1":-89.0895,"lo2":-89.0444,"dy":0.0017,"dx":0.0017,"nx":28,"ny":28,"refTime":"2023-07-28T03:00:00:Z","depth":0,"parameterNumber":3,"parameterNumberName":"V-component_of_WINDS"},"data":[0,0,0,0,0,0,0,0,0,0,0,0,0,0,0,0,0,0,0,0,0,0,0,0,0,0,0,0,0,0,0,0,0,0,0,0,0,0,0,0,0,0,0,0,0,0,0,0,0,0,0,0,0,0,0,0,0,0,1.261,1.2609,0,1.2551,1.255,1.2549,1.2501,1.2501,1.25,1.25,1.2436,1.2435,1.2434,0,0,0,0,0,0,0,0,0,0,0,0,0,1.2677,1.2677,1.261,1.2609,1.2608,1.2551,1.255,1.2549,1.2501,1.2501,1.25,1.25,1.2436,1.2435,1.2433,0,0,0,0,0,0,0,0,0,0,0,0,0,1.2636,1.2676,1.261,1.2578,1.2574,1.2551,1.255,1.2549,1.2501,1.2501,1.25,1.2499,1.2437,1.2435,1.2433,1.2436,0,0,1.2428,1.2427,0,0,0,0,0,0,0,0,1.2639,1.2634,1.2583,1.258,1.2576,1.2533,1.255,1.2511,1.2502,1.2529,1.25,1.2499,1.2469,1.2464,1.2454,1.2433,1.2431,1.2427,1.2426,1.2425,1.2425,0,0,0,0,0,0,0,1.2641,1.2636,1.2586,1.2582,1.2578,1.2565,1.2558,1.2543,1.2503,1.2527,1.2523,1.2517,1.2466,1.2456,1.2453,1.243,1.2427,1.2426,1.2425,1.2424,1.2406,1.2407,0,0,0,0,0,0,1.265,1.2639,1.2588,1.2584,1.2606,1.2564,1.2557,1.2547,1.2504,1.2496,1.2517,1.2515,1.246,1.2455,1.245,1.245,1.2425,1.2424,1.2423,1.2406,1.2406,1.2407,0,0,0,0,0,0,1.2651,1.2646,1.259,1.2611,1.2603,1.2564,1.2553,1.2546,1.2536,1.2497,1.2489,1.2515,1.2459,1.2453,1.244,1.2447,1.2423,1.2421,1.2405,1.2406,1.2407,1.245,0,0,0,0,0,0,1.2654,1.2647,1.2648,1.2611,1.2602,1.2583,1.2554,1.2546,1.2534,1.253,1.2492,1.2485,1.2458,1.2443,1.2438,1.2444,1.242,1.2404,1.2405,1.2406,1.2448,1.2452,1.2456,0,0,0,0,0,1.2656,1.2662,1.2649,1.2643,1.2603,1.2583,1.2578,1.2547,1.2534,1.2535,1.2509,1.2486,1.2447,1.2442,1.2436,1.2442,1.2403,1.2405,1.2406,1.2446,1.2451,1.2456,0,0,0,0,0,0,1.2701,1.2657,1.2641,1.2636,1.2614,1.2575,1.2575,1.2554,1.2535,1.2532,1.2494,1.2486,1.2477,1.2458,1.2453,1.2441,1.2422,1.2422,1.2454,1.2459,1.2463,1.2468,1.2418,0,0,0,0,0,1.271,1.2699,1.2661,1.2659,1.2649,1.2614,1.2604,1.2583,1.2558,1.2548,1.2522,1.2497,1.2479,1.2468,1.2449,1.2445,1.2435,1.2445,1.245,1.2453,1.2454,1.2448,1.2452,1.2412,1.2412,1.2412,0,0,1.2729,1.2704,1.2699,1.2668,1.2648,1.2636,1.2607,1.2595,1.2585,1.2546,1.2532,1.2512,1.2482,1.2473,1.2468,1.2457,1.2463,1.2455,1.2458,1.2457,1.245,1.2454,1.2458,1.2413,1.2413,1.2413,0,0,1.2757,1.2738,1.2734,1.2715,1.2686,1.2662,1.2661,1.2626,1.2611,1.2597,1.2567,1.2554,1.2524,1.2504,1.2489,1.2509,1.2486,1.2504,1.2526,1.2521,1.2524,1.2527,1.2533,1.2535,1.2505,1.2505,1.2505,0,1.2784,1.2765,1.2734,1.2724,1.2711,1.2676,1.2671,1.2654,1.262,1.261,1.2599,1.2561,1.2538,1.2523,1.2528,1.2518,1.2515,1.2508,1.2527,1.2529,1.2531,1.2536,1.2538,1.2507,1.2507,1.2507,1.2506,0,1.2799,1.2787,1.2787,1.2756,1.2743,1.2735,1.2702,1.2692,1.2671,1.2649,1.2634,1.2606,1.258,1.2575,1.2555,1.2557,1.2551,1.2534,1.2514,1.2537,1.2541,1.2543,1.251,1.2509,1.2509,1.2508,0,0,1.2854,1.2805,1.2806,1.2791,1.2756,1.2745,1.2735,1.2711,1.2703,1.268,1.267,1.2646,1.2629,1.2613,1.259,1.2586,1.2602,1.2568,1.2567,1.2575,1.2601,1.2613,1.2616,1.2587,1.2587,1.2587,1.2603,0,1.2875,1.2858,1.2829,1.282,1.2807,1.2773,1.2765,1.2741,1.272,1.2705,1.268,1.2663,1.2643,1.2633,1.2628,1.2601,1.2606,1.26,1.2576,1.2575,1.2584,1.2619,1.2632,1.2648,1.2604,1.2604,1.2605,0,1.2899,1.2879,1.2869,1.2834,1.2827,1.282,1.2795,1.2782,1.2754,1.2738,1.272,1.2695,1.2682,1.2664,1.2644,1.264,1.2629,1.2614,1.2614,1.261,1.2591,1.2615,1.2653,1.2655,1.2607,1.2607,1.2607,0,1.2938,1.2909,1.2898,1.2887,1.2846,1.2842,1.2824,1.2796,1.2783,1.2761,1.2752,1.2728,1.2715,1.2696,1.2665,1.2655,1.2648,1.2628,1.2633,1.2634,1.2633,1.2633,1.2669,1.2627,1.2627,1.2627,1.2627,0,1.2965,1.296,1.2916,1.2909,1.2902,1.2869,1.2862,1.2841,1.2816,1.2804,1.2773,1.2762,1.2722,1.2706,1.2681,1.2667,1.2662,1.2648,1.2641,1.265,1.2652,1.2641,1.2639,1.2627,1.2627,1.2627,1.2627,0,1.3008,1.2978,1.2965,1.2927,1.2918,1.2914,1.2881,1.2873,1.2849,1.2834,1.2829,1.2792,1.2771,1.2738,1.2708,1.2691,1.2681,1.2671,1.2691,1.2687,1.2694,1.2693,1.2723,1.2725,1.2683,1.2684,1.2684,0,1.3026,1.3022,1.2984,1.2974,1.2958,1.2943,1.293,1.2896,1.2883,1.2851,1.2846,1.2823,1.2803,1.2771,1.2741,1.2717,1.2705,1.2717,1.2701,1.271,1.2704,1.2704,1.2703,1.2721,1.2721,1.2722,1.2722,0,1.3062,1.3048,1.3031,1.3008,1.2993,1.2974,1.2952,1.2946,1.2907,1.2894,1.2873,1.2858,1.2826,1.2804,1.2775,1.2756,1.2732,1.2728,1.2727,1.2736,1.2748,1.2741,1.27,1.2727,1.2726,1.2726,1.2726,1.2726,1.3093,1.3087,1.3059,1.3041,1.3021,1.3002,1.2992,1.2968,1.295,1.2923,1.2904,1.2884,1.2854,1.2814,1.2796,1.2778,1.2768,1.2768,1.2768,1.2768,1.2771,1.2751,1.2773,1.2773,1.2773,1.2773,1.2773,0,1.3126,1.3107,1.309,1.3062,1.3047,1.3027,1.3002,1.2991,1.2974,1.2949,1.293,1.2905,1.2883,1.2851,1.2825,1.2817,1.2806,1.2812,1.2812,1.2807,1.2782,1.2785,1.2822,1.2822,1.2822,1.2822,1.2822,1.2822,1.3142,1.313,1.3113,1.309,1.307,1.3051,1.3039,1.302,1.3,1.2974,1.2956,1.2935,1.2907,1.2879,1.2857,1.2848,1.284,1.2849,1.2836,1.2814,1.2809,1.2805,1.2807,1.2848,1.2848,1.2862,1.2862,1.2862]}]]